Weather History for KSAF - November, 2012

Change the Weather History Date:

Monday, November 5, 2012

  Actual Average Record
Temperature  
Mean Temperature 49 °F -  
Max Temperature 64 °F 68 °F 72 °F (1977)
Min Temperature 34 °F 29 °F 24 °F (2003)
Degree Days  
Heating Degree Days 16    
Moisture  
Dew Point 13 °F    
Average Humidity 25    
Maximum Humidity 38    
Minimum Humidity 14    
Precipitation  
Precipitation 0.00 in - - ()
Sea Level Pressure  
Sea Level Pressure 30.16 in    
Wind  
Wind Speed 6 mph (NNE)    
Max Wind Speed 9 mph    
Max Gust Speed -    
Visibility 10 miles    
Events      
Averages and records for this station are not official NWS values.
T = Trace of Precipitation, MM = Missing Value Source: NWS Daily Summary

Daily Weather History Graph

Daily Weather History Graph

Search for Another Location

Airport or City:

Trip Planner

Search our weather history database for the weather conditions in past years. The results will help you decide how hot, cold, wet, or windy it might be!

Date:

Astronomy

Nov. 05, 2012 Rise Set
Actual Time 6:30 AM MST 5:04 PM MST
Civil Twilight 6:04 AM MST 5:31 PM MST
Nautical Twilight 5:33 AM MST 6:01 PM MST
Astronomical Twilight 5:03 AM MST 6:31 PM MST
Moon 10:44 PM MST (11/5) 11:51 AM MST (11/5)
Length of Visible Light 11h 27m
Length of Day
10h 34m
Waning Gibbous, 62% of the Moon is Illuminated
Nov 5
Waning Gibbous
Nov 6
Last Quarter
Nov 13
New
Nov 20
First Quarter
Nov 28
Full

Hourly Weather History & Observations

Time (MST) Temp. Windchill Dew Point Humidity Pressure Visibility Wind Dir Wind Speed Gust Speed Precip Events Conditions
12:53 AM 42.1 °F 36.6 °F 9.0 °F 26% 30.14 in 10.0 mi North 9.2 mph - N/A   Clear
1:53 AM 42.1 °F 37.7 °F 10.0 °F 27% 30.15 in 10.0 mi North 6.9 mph - N/A   Clear
2:53 AM 42.1 °F 37.7 °F 10.0 °F 27% 30.15 in 10.0 mi North 6.9 mph - N/A   Clear
3:53 AM 35.1 °F 30.1 °F 9.0 °F 34% 30.18 in 10.0 mi NE 5.8 mph - N/A   Clear
4:53 AM 34.0 °F 26.6 °F 9.0 °F 35% 30.20 in 10.0 mi NNE 9.2 mph - N/A   Clear
5:53 AM 35.1 °F 28.6 °F 9.0 °F 34% 30.22 in 10.0 mi NNE 8.1 mph - N/A   Clear
6:53 AM 34.0 °F 28.0 °F 10.0 °F 37% 30.29 in 10.0 mi NNE 6.9 mph - N/A   Clear
7:53 AM 42.1 °F 39.2 °F 10.9 °F 28% 30.27 in 10.0 mi NNE 4.6 mph - N/A   Clear
8:53 AM 50.0 °F - 12.0 °F 22% 30.25 in 10.0 mi North 9.2 mph - N/A   Clear
9:53 AM 54.0 °F - 14.0 °F 21% 30.21 in 10.0 mi Calm Calm - N/A   Clear
10:53 AM 57.0 °F - 14.0 °F 18% 30.19 in 10.0 mi NW 4.6 mph - N/A   Clear
11:53 AM 61.0 °F - 12.9 °F 15% 30.16 in 10.0 mi ESE 4.6 mph - N/A   Clear
12:53 PM 62.1 °F - 12.9 °F 15% 30.12 in 10.0 mi Variable 4.6 mph - N/A   Clear
1:53 PM 64.0 °F - 12.9 °F 14% 30.09 in 10.0 mi West 8.1 mph - N/A   Clear
2:53 PM 64.9 °F - 14.0 °F 14% 30.07 in 10.0 mi WNW 4.6 mph - N/A   Clear
3:53 PM 64.0 °F - 15.1 °F 15% 30.10 in 10.0 mi SW 4.6 mph - N/A   Clear
4:53 PM 60.1 °F - 15.1 °F 17% 30.12 in 10.0 mi SW 4.6 mph - N/A   Clear
5:53 PM 60.1 °F - 16.0 °F 18% 30.12 in 10.0 mi Calm Calm - N/A   Clear
6:53 PM 54.0 °F - 16.0 °F 22% 30.16 in 10.0 mi Calm Calm - N/A   Clear
7:53 PM 50.0 °F - 15.1 °F 25% 30.14 in 10.0 mi East 3.5 mph - N/A   Clear
8:53 PM 42.1 °F 39.2 °F 15.1 °F 34% 30.16 in 10.0 mi NNE 4.6 mph - N/A   Clear
9:53 PM 39.9 °F 35.1 °F 16.0 °F 38% 30.15 in 10.0 mi North 6.9 mph - N/A   Clear
10:53 PM 42.1 °F 40.2 °F 17.1 °F 37% 30.14 in 10.0 mi ENE 3.5 mph - N/A   Clear
11:53 PM 42.1 °F 38.4 °F 17.1 °F 37% 30.12 in 10.0 mi NNE 5.8 mph - N/A   Clear